SCP
0 0 -0 0 0 0 0 0 0 0 0 0 0 0 1 1 0 0 0 0 0 0 0 0 0 0 0 0 0 0 0 0 0 0 0 0 0 0 0 0 0 0 0 -0
0 0 0 0 0 0 0 0 0 0 0 0 0 1 1 1 0 0 0 0 0 0 0 0 0 0 0 0 0 0 0 0 0 0 0 0 0 0 0 0 0 0 0 0
-0 0 0 0 0 0 0 0 0 0 0 0 1 2 1 1 1 0 0 0 0 0 0 0 0 0 0 0 0 0 0 0 0 0 0 0 0 0 0 0 0 0 0 0
0 0 0 0 0 0 0 0 0 0 0 0 0 0 1 0 0 0 0 0 0 0 0 0 0 0 0 0 0 0 0 0 0 0 0 0 0 0 0 0 0 0 0 0
0 0 0 0 0 0 0 0 0 0 0 0 1 1 1 1 0 0 0 0 0 0 0 0 0 0 0 0 0 0 0 0 0 0 0 0 0 0 0 0 0 0 0 0
0 0 0 0 0 0 0 0 0 0 0 0 0 0 1 1 1 0 0 0 0 0 0 0 0 0 0 0 0 0 0 0 0 0 0 0 0 0 0 0 0 0 0 0
0 0 0 0 0 0 0 0 0 0 1 0 0 0 0 0 0 0 0 0 0 0 0 0 0 0 0 0 0 0 0 0 0 0 0 0 0 0 0 0 0 0 0 0
0 0 0 0 0 0 0 0 0 0 0 0 0 0 0 0 0 0 0 0 0 0 0 0 0 0 0 0 0 0 0 0 0 0 0 0 0 0 0 0 0 0 0 0
0 0 0 -0 0 0 0 0 0 0 0 0 0 0 0 0 0 0 0 0 0 0 0 0 0 0 0 0 0 0 0 0 0 0 0 0 0 0 0 0 0 0 0 0
0 0 0 0 0 -0 -0 0 -0 0 -0 0 0 0 0 0 0 0 0 0 0 0 0 0 0 0 0 0 0 0 0 0 0 0 0 0 0 0 0 0 0 0 0 0
0 0 0 0 0 0 0 0 0 0 -0 -0 0 0 0 0 0 0 0 0 0 0 0 0 0 0 0 0 0 0 0 0 0 0 0 0 0 0 0 0 0 0 0 0
0 0 0 0 0 0 0 0 0 0 0 0 0 0 0 0 0 0 0 0 0 0 0 0 0 0 0 0 0 0 0 0 0 0 0 0 0 0 0 0 0 0 0 0
-0 0 0 0 -0 0 -0 -0 0 0 0 0 0 0 0 0 0 0 0 0 0 0 0 0 0 0 0 0 0 0 0 0 0 0 0 0 0 0 0 0 0 0 0 0
-0 0 0 -0 -0 -0 0 -0 -0 -0 0 0 0 0 0 0 0 0 0 0 0 0 0 0 0 0 0 0 0 0 0 0 0 0 0 0 0 0 0 0 0 0 0 0
-0 -0 0 0 0 0 0 0 -0 0 0 0 0 0 0 0 0 0 0 0 0 0 0 0 0 0 0 0 0 0 0 0 0 0 0 0 0 0 0 0 0 0 0 0
0 0 0 0 0 0 0 0 0 0 0 0 0 0 0 0 0 0 0 0 0 0 0 0 0 0 0 0 0 0 0 0 0 0 0 0 0 0 0 0 0 0 0 0
0 0 0 0 0 0 0 0 0 0 0 0 0 0 0 0 0 0 0 0 0 0 0 0 0 0 0 0 0 0 0 0 0 0 0 0 -0 0 0 0 0 0 0 0
0 0 0 0 0 0 0 0 0 0 0 0 0 0 0 0 0 0 0 0 0 0 0 0 0 0 0 0 0 0 0 0 0 0 0 0 0 0 0 0 0 0 0 0
0 0 0 0 0 0 0 0 0 0 0 0 0 0 0 0 0 0 0 0 0 0 0 0 0 0 0 0 0 0 0 0 0 0 0 0 0 0 0 0 0 0 0 0
0 0 0 0 0 0 0 0 0 0 0 0 0 0 0 0 0 0 0 0 0 0 0 -0 -0 0 0 0 0 0 0 0 0 0 0 0 0 0 0 0 0 0 0 0
0 0 0 0 0 0 0 0 0 0 0 0 0 0 0 0 0 0 0 0 0 0 0 0 0 0 0 0 0 0 0 0 0 0 -0 0 0 0 0 0 0 0 0 0
0 0 0 0 0 0 0 0 0 0 0 0 0 0 0 0 -0 0 0 0 0 0 0 0 0 0 0 0 0 0 0 0 0 0 0 0 0 0 0 0 0 0 0 0
0 0 0 0 0 0 0 0 0 0 0 0 0 -0 0 -0 -0 -0 0 0 0 0 0 0 0 0 0 0 0 0 0 0 0 0 0 0 0 0 0 0 0 0 0 0
0 0 0 0 0 0 0 0 0 0 0 -0 0 0 0 0 0 0 0 0 0 0 0 0 0 0 0 0 0 0 0 0 0 0 0 0 0 0 0 0 0 0 0 0
0 0 0 0 0 0 0 0 0 0 -0 -0 0 0 0 0 0 0 0 0 0 0 0 0 0 0 0 0 0 0 0 0 0 0 0 0 0 0 0 0 0 0 0 0
0 0 0 0 0 0 0 0 0 -0 -0 0 0 0 0 0 0 0 0 0 0 0 0 0 0 0 0 0 0 0 0 0 0 0 0 0 0 0 0 0 0 0 0 0
0 0 0 0 0 0 0 0 0 0 0 0 0 0 0 0 0 0 0 0 0 0 0 0 0 0 0 0 0 0 0 0 0 0 0 0 0 0 0 0 0 0 0 0
Wind_Speed_500mb
11 14 8 14 17 17 5 6 3 6 10 5 6 22 25 39 50 51 45 45 39 37 41 39 35 34 30 18 17 14 10 7 8 6 5 8 2 8 12 13 24 30 36 41
7 8 11 9 14 12 3 4 13 10 11 3 20 37 36 39 55 62 57 50 52 44 38 33 33 29 23 22 16 10 1 4 12 15 11 9 14 13 11 19 28 35 28 34
10 11 13 6 6 10 7 6 12 8 10 8 17 13 28 41 53 50 67 56 49 42 35 34 32 26 23 15 10 7 12 17 18 11 14 13 7 11 19 28 34 25 31 32
8 8 6 7 8 5 5 10 1 17 12 19 35 35 37 36 57 58 49 41 44 41 31 32 33 25 22 18 16 11 15 12 11 10 7 11 15 17 26 23 23 29 31 36
4 5 6 4 5 7 6 6 10 11 12 25 46 54 36 56 47 57 43 33 37 29 36 34 31 29 20 15 9 14 15 14 16 14 12 13 9 19 19 19 25 31 36 42
1 8 14 7 4 9 3 5 5 8 3 6 13 9 4 39 50 38 33 43 44 43 48 50 36 29 23 11 6 1 7 10 7 7 10 15 17 20 25 31 26 31 35 40
4 8 11 4 11 4 6 11 16 23 18 16 8 9 18 27 29 34 48 44 46 46 57 36 28 24 10 5 6 6 8 13 11 11 13 17 25 29 32 32 33 29 36 41
6 6 11 12 7 10 7 9 37 34 31 32 29 23 28 38 47 42 44 39 8 36 31 27 24 10 6 5 4 4 9 9 12 19 24 30 33 31 31 29 27 34 45 40
11 9 14 14 29 29 21 22 25 22 15 8 31 27 26 29 25 25 27 31 39 35 27 21 14 10 10 7 7 11 15 21 26 27 28 29 30 30 24 31 40 41 34 33
7 11 22 21 27 22 19 17 16 17 17 13 7 18 28 29 26 36 40 43 34 33 28 24 20 16 11 12 13 12 15 19 20 22 21 22 25 30 35 37 34 30 34 34
6 14 29 18 18 13 15 14 11 11 14 14 16 18 33 43 46 43 46 38 33 30 27 26 20 13 8 11 11 11 12 13 14 18 24 31 36 36 31 28 28 32 32 23
4 9 15 24 33 23 33 31 19 12 8 3 10 18 26 35 41 49 43 38 34 29 25 21 20 13 5 7 8 10 9 9 17 23 34 39 36 27 24 27 31 30 22 20
23 35 1 23 28 30 24 16 14 11 10 10 11 22 28 39 40 44 38 34 30 26 27 22 14 5 9 8 7 8 12 18 25 30 29 29 25 24 24 26 21 11 13 26
36 35 27 25 22 22 18 11 13 12 14 7 3 22 37 37 33 28 26 25 25 24 21 18 14 9 7 4 9 13 22 26 21 17 21 29 31 28 18 8 10 28 22 19
29 32 28 27 24 16 9 6 6 23 26 30 30 29 25 25 24 21 18 16 17 15 14 11 9 6 10 14 19 29 27 14 8 15 22 27 18 11 8 12 28 20 17 15
43 39 38 34 34 33 34 39 47 47 44 42 39 33 29 25 22 17 11 2 9 9 0 10 26 36 46 38 25 19 14 6 5 7 15 22 20 14 17 25 13 12 11 11
44 42 43 43 43 41 41 36 34 30 26 23 22 16 10 7 6 7 8 13 17 21 21 20 18 15 16 21 13 10 9 4 5 5 7 19 20 19 17 10 11 10 8 10
29 37 35 40 39 35 31 26 22 19 20 17 14 12 11 12 12 12 13 14 12 12 10 13 17 17 13 7 5 3 7 10 8 4 7 13 11 9 9 8 9 11 8 6
39 42 36 31 25 21 19 17 18 18 16 15 12 14 14 13 12 11 10 9 6 9 13 17 18 12 4 6 6 3 4 4 7 10 12 10 14 11 13 14 21 17 19 13
38 34 28 26 22 21 20 16 14 15 17 17 17 15 17 17 12 7 4 6 7 12 11 15 19 6 12 8 9 7 2 3 1 6 4 11 15 16 14 12 10 13 16 6
22 16 12 10 12 16 18 16 14 17 20 21 16 16 15 14 13 12 9 7 13 12 12 16 18 14 13 14 11 14 10 9 5 4 13 14 15 10 7 5 3 2 3 5
20 13 9 8 12 13 15 14 15 16 15 14 20 23 25 29 30 30 26 22 19 20 18 18 19 21 16 11 10 9 12 5 6 11 16 9 8 2 3 6 4 9 5 4
16 9 9 13 14 12 14 14 15 14 16 25 32 33 33 34 28 23 22 22 25 27 29 27 23 17 14 14 15 15 12 8 6 3 2 8 9 5 4 5 5 4 4 2
8 10 14 15 15 12 15 17 21 25 32 35 32 28 27 35 37 40 38 36 31 27 27 24 19 14 12 16 17 17 23 23 15 6 6 6 5 3 2 9 11 13 16 13
11 17 16 14 12 10 11 14 17 21 19 18 22 23 27 32 29 22 24 23 18 19 21 22 23 21 20 21 21 24 28 33 37 34 21 11 9 9 10 10 11 12 14 17
13 14 11 9 12 7 7 8 9 13 12 16 21 33 32 27 23 22 23 16 14 11 13 18 23 25 24 23 25 27 31 33 34 35 34 33 30 28 24 17 11 9 10 12
9 8 10 11 12 10 10 4 10 13 13 15 27 40 28 21 17 15 12 10 11 12 12 16 19 22 23 25 28 29 27 27 28 29 31 33 36 40 40 42 37 26 18 15
Wind_Direction_500mb
260 248 238 244 270 285 281 250 152 235 90 354 182 138 125 125 138 139 134 133 142 159 180 180 174 179 189 178 179 219 232 219 222 204 283 308 289 270 273 318 337 339 341 349
286 312 13 277 279 241 275 313 69 355 69 327 124 127 130 137 133 132 137 148 147 157 154 150 149 146 148 150 155 161 110 269 285 291 299 274 263 282 324 335 340 337 336 358
279 331 331 332 225 264 267 204 148 167 222 145 98 92 137 137 140 146 145 159 147 144 144 151 151 154 149 159 191 224 265 269 269 267 257 245 275 316 327 328 325 325 321 325
275 352 264 253 332 299 59 11 46 109 165 164 131 136 150 149 147 148 144 149 143 147 149 175 163 165 182 185 196 228 248 241 200 189 259 284 295 307 323 323 321 308 299 300
255 226 269 209 28 2 43 266 304 157 152 128 129 127 133 158 164 159 142 145 153 144 184 191 168 172 182 178 170 185 199 256 251 245 274 279 282 323 320 316 312 300 292 292
354 243 209 223 2 28 180 272 162 129 146 147 135 116 243 153 162 173 181 182 172 158 180 203 175 172 164 150 152 7 314 293 286 311 327 306 301 307 303 307 311 311 309 305
266 276 291 259 332 16 110 241 132 103 86 100 63 77 120 170 202 193 174 162 164 183 193 179 161 166 155 135 196 256 272 299 291 313 299 295 285 288 296 306 308 310 305 306
303 279 290 299 26 145 230 103 131 132 116 110 110 122 135 147 154 159 160 170 215 224 202 199 156 175 143 168 249 248 296 296 279 278 281 285 289 294 302 306 307 308 306 305
211 225 325 302 270 253 96 199 133 124 130 117 150 166 177 172 181 198 219 240 212 213 209 166 171 180 192 191 216 244 265 271 274 281 288 293 291 299 302 307 306 303 302 309
276 319 350 42 93 147 187 144 158 149 131 156 203 187 194 218 216 207 219 212 213 212 184 179 178 189 199 217 232 256 277 285 287 295 293 297 302 303 305 307 304 307 310 309
14 17 360 33 34 48 120 136 154 166 182 179 205 226 227 224 218 207 202 196 195 192 186 182 188 193 228 241 275 299 308 304 294 303 314 312 313 309 304 311 321 319 315 314
89 62 301 309 27 40 41 40 43 57 77 211 258 253 231 215 203 193 187 182 183 187 195 208 196 197 253 299 315 318 312 308 321 321 327 324 317 302 312 320 324 328 331 333
155 163 256 353 12 30 19 14 359 347 2 345 310 238 210 188 177 171 178 184 196 206 194 191 197 172 303 277 289 301 317 322 318 319 321 335 318 312 311 319 330 15 49 83
167 165 170 184 180 297 289 325 329 344 356 347 206 170 158 161 168 184 195 194 192 191 195 195 211 204 182 264 298 314 323 318 318 341 355 336 316 314 326 35 70 104 90 70
205 196 206 191 189 150 127 92 46 75 93 102 123 136 151 155 154 154 160 167 171 165 147 145 117 75 358 315 311 317 315 306 335 7 355 341 355 28 46 95 120 102 96 75
131 135 140 132 117 110 106 95 93 82 80 82 86 87 88 88 87 86 74 61 264 233 216 323 322 315 325 302 301 321 312 306 52 23 9 28 33 63 96 119 91 99 96 74
132 123 124 116 111 102 91 87 84 80 76 69 68 64 53 37 352 336 328 332 338 329 338 322 324 319 284 287 302 315 250 177 111 268 37 41 52 77 104 75 64 80 59 15
143 137 127 120 112 106 94 80 64 47 36 25 7 353 343 338 344 352 354 351 341 339 336 309 305 307 309 283 301 302 139 140 165 35 359 25 52 63 54 35 5 346 320 328
128 123 118 109 97 85 73 55 44 40 36 34 28 37 32 24 24 18 16 16 25 24 14 356 350 319 11 45 60 142 189 198 221 231 299 325 329 315 305 313 310 314 314 295
126 122 117 103 82 59 57 53 41 38 40 19 13 7 13 30 37 38 34 27 26 12 10 15 0 50 67 41 51 71 359 289 294 274 296 313 317 323 314 314 302 313 288 266
127 115 93 67 46 27 19 29 34 29 18 10 22 49 48 68 76 79 83 55 53 58 54 51 55 67 53 53 42 10 338 267 329 286 291 290 282 258 263 203 160 109 165 194
146 136 101 60 47 57 54 55 28 21 29 68 78 81 87 87 84 82 83 81 73 68 94 79 73 72 57 40 54 50 25 31 281 302 318 263 249 267 8 209 282 233 223 215
131 112 96 84 75 87 94 66 47 63 96 102 102 94 90 86 85 86 87 84 87 89 90 79 67 84 78 51 23 19 15 354 340 25 121 166 164 214 244 223 217 187 189 260
126 130 124 105 86 106 112 84 77 95 108 103 100 94 93 98 95 89 94 98 97 90 89 79 68 46 12 356 358 23 50 44 33 38 73 77 63 35 255 235 247 265 284 286
136 142 140 143 116 95 123 117 114 105 101 98 103 108 114 118 113 104 102 112 104 100 77 64 44 40 42 45 55 61 63 61 62 64 67 56 25 355 338 319 306 299 297 298
158 164 164 149 148 133 145 117 146 130 112 117 122 134 125 116 109 103 96 97 95 97 71 60 44 41 45 60 69 69 67 66 64 64 61 55 44 31 20 5 352 351 358 3
152 187 199 170 157 165 184 229 175 151 124 135 143 146 138 121 117 128 124 92 75 67 70 53 41 44 57 69 69 69 69 67 65 61 55 51 46 45 47 47 49 49 43 36
Wind_Speed_850mb
11 14 8 14 17 17 5 6 3 6 10 5 6 22 25 39 50 51 45 45 39 37 41 39 35 34 30 18 17 14 10 7 8 6 5 8 2 8 12 13 24 30 36 41
7 8 11 9 14 12 3 4 13 10 11 3 20 37 36 39 55 62 57 50 52 44 38 33 33 29 23 22 16 10 1 4 12 15 11 9 14 13 11 19 28 35 28 34
10 11 13 6 6 10 7 6 12 8 10 8 17 13 28 41 53 50 67 56 49 42 35 34 32 26 23 15 10 7 12 17 18 11 14 13 7 11 19 28 34 25 31 32
8 8 6 7 8 5 5 10 1 17 12 19 35 35 37 36 57 58 49 41 44 41 31 32 33 25 22 18 16 11 15 12 11 10 7 11 15 17 26 23 23 29 31 36
4 5 6 4 5 7 6 6 10 11 12 25 46 54 36 56 47 57 43 33 37 29 36 34 31 29 20 15 9 14 15 14 16 14 12 13 9 19 19 19 25 31 36 42
1 8 14 7 4 9 3 5 5 8 3 6 13 9 4 39 50 38 33 43 44 43 48 50 36 29 23 11 6 1 7 10 7 7 10 15 17 20 25 31 26 31 35 40
4 8 11 4 11 4 6 11 16 23 18 16 8 9 18 27 29 34 48 44 46 46 57 36 28 24 10 5 6 6 8 13 11 11 13 17 25 29 32 32 33 29 36 41
6 6 11 12 7 10 7 9 37 34 31 32 29 23 28 38 47 42 44 39 8 36 31 27 24 10 6 5 4 4 9 9 12 19 24 30 33 31 31 29 27 34 45 40
11 9 14 14 29 29 21 22 25 22 15 8 31 27 26 29 25 25 27 31 39 35 27 21 14 10 10 7 7 11 15 21 26 27 28 29 30 30 24 31 40 41 34 33
7 11 22 21 27 22 19 17 16 17 17 13 7 18 28 29 26 36 40 43 34 33 28 24 20 16 11 12 13 12 15 19 20 22 21 22 25 30 35 37 34 30 34 34
6 14 29 18 18 13 15 14 11 11 14 14 16 18 33 43 46 43 46 38 33 30 27 26 20 13 8 11 11 11 12 13 14 18 24 31 36 36 31 28 28 32 32 23
4 9 15 24 33 23 33 31 19 12 8 3 10 18 26 35 41 49 43 38 34 29 25 21 20 13 5 7 8 10 9 9 17 23 34 39 36 27 24 27 31 30 22 20
23 35 1 23 28 30 24 16 14 11 10 10 11 22 28 39 40 44 38 34 30 26 27 22 14 5 9 8 7 8 12 18 25 30 29 29 25 24 24 26 21 11 13 26
36 35 27 25 22 22 18 11 13 12 14 7 3 22 37 37 33 28 26 25 25 24 21 18 14 9 7 4 9 13 22 26 21 17 21 29 31 28 18 8 10 28 22 19
29 32 28 27 24 16 9 6 6 23 26 30 30 29 25 25 24 21 18 16 17 15 14 11 9 6 10 14 19 29 27 14 8 15 22 27 18 11 8 12 28 20 17 15
43 39 38 34 34 33 34 39 47 47 44 42 39 33 29 25 22 17 11 2 9 9 0 10 26 36 46 38 25 19 14 6 5 7 15 22 20 14 17 25 13 12 11 11
44 42 43 43 43 41 41 36 34 30 26 23 22 16 10 7 6 7 8 13 17 21 21 20 18 15 16 21 13 10 9 4 5 5 7 19 20 19 17 10 11 10 8 10
29 37 35 40 39 35 31 26 22 19 20 17 14 12 11 12 12 12 13 14 12 12 10 13 17 17 13 7 5 3 7 10 8 4 7 13 11 9 9 8 9 11 8 6
39 42 36 31 25 21 19 17 18 18 16 15 12 14 14 13 12 11 10 9 6 9 13 17 18 12 4 6 6 3 4 4 7 10 12 10 14 11 13 14 21 17 19 13
38 34 28 26 22 21 20 16 14 15 17 17 17 15 17 17 12 7 4 6 7 12 11 15 19 6 12 8 9 7 2 3 1 6 4 11 15 16 14 12 10 13 16 6
22 16 12 10 12 16 18 16 14 17 20 21 16 16 15 14 13 12 9 7 13 12 12 16 18 14 13 14 11 14 10 9 5 4 13 14 15 10 7 5 3 2 3 5
20 13 9 8 12 13 15 14 15 16 15 14 20 23 25 29 30 30 26 22 19 20 18 18 19 21 16 11 10 9 12 5 6 11 16 9 8 2 3 6 4 9 5 4
16 9 9 13 14 12 14 14 15 14 16 25 32 33 33 34 28 23 22 22 25 27 29 27 23 17 14 14 15 15 12 8 6 3 2 8 9 5 4 5 5 4 4 2
8 10 14 15 15 12 15 17 21 25 32 35 32 28 27 35 37 40 38 36 31 27 27 24 19 14 12 16 17 17 23 23 15 6 6 6 5 3 2 9 11 13 16 13
11 17 16 14 12 10 11 14 17 21 19 18 22 23 27 32 29 22 24 23 18 19 21 22 23 21 20 21 21 24 28 33 37 34 21 11 9 9 10 10 11 12 14 17
13 14 11 9 12 7 7 8 9 13 12 16 21 33 32 27 23 22 23 16 14 11 13 18 23 25 24 23 25 27 31 33 34 35 34 33 30 28 24 17 11 9 10 12
9 8 10 11 12 10 10 4 10 13 13 15 27 40 28 21 17 15 12 10 11 12 12 16 19 22 23 25 28 29 27 27 28 29 31 33 36 40 40 42 37 26 18 15
Wind_Direction_850mb
260 248 238 244 270 285 281 250 152 235 90 354 182 138 125 125 138 139 134 133 142 159 180 180 174 179 189 178 179 219 232 219 222 204 283 308 289 270 273 318 337 339 341 349
286 312 13 277 279 241 275 313 69 355 69 327 124 127 130 137 133 132 137 148 147 157 154 150 149 146 148 150 155 161 110 269 285 291 299 274 263 282 324 335 340 337 336 358
279 331 331 332 225 264 267 204 148 167 222 145 98 92 137 137 140 146 145 159 147 144 144 151 151 154 149 159 191 224 265 269 269 267 257 245 275 316 327 328 325 325 321 325
275 352 264 253 332 299 59 11 46 109 165 164 131 136 150 149 147 148 144 149 143 147 149 175 163 165 182 185 196 228 248 241 200 189 259 284 295 307 323 323 321 308 299 300
255 226 269 209 28 2 43 266 304 157 152 128 129 127 133 158 164 159 142 145 153 144 184 191 168 172 182 178 170 185 199 256 251 245 274 279 282 323 320 316 312 300 292 292
354 243 209 223 2 28 180 272 162 129 146 147 135 116 243 153 162 173 181 182 172 158 180 203 175 172 164 150 152 7 314 293 286 311 327 306 301 307 303 307 311 311 309 305
266 276 291 259 332 16 110 241 132 103 86 100 63 77 120 170 202 193 174 162 164 183 193 179 161 166 155 135 196 256 272 299 291 313 299 295 285 288 296 306 308 310 305 306
303 279 290 299 26 145 230 103 131 132 116 110 110 122 135 147 154 159 160 170 215 224 202 199 156 175 143 168 249 248 296 296 279 278 281 285 289 294 302 306 307 308 306 305
211 225 325 302 270 253 96 199 133 124 130 117 150 166 177 172 181 198 219 240 212 213 209 166 171 180 192 191 216 244 265 271 274 281 288 293 291 299 302 307 306 303 302 309
276 319 350 42 93 147 187 144 158 149 131 156 203 187 194 218 216 207 219 212 213 212 184 179 178 189 199 217 232 256 277 285 287 295 293 297 302 303 305 307 304 307 310 309
14 17 360 33 34 48 120 136 154 166 182 179 205 226 227 224 218 207 202 196 195 192 186 182 188 193 228 241 275 299 308 304 294 303 314 312 313 309 304 311 321 319 315 314
89 62 301 309 27 40 41 40 43 57 77 211 258 253 231 215 203 193 187 182 183 187 195 208 196 197 253 299 315 318 312 308 321 321 327 324 317 302 312 320 324 328 331 333
155 163 256 353 12 30 19 14 359 347 2 345 310 238 210 188 177 171 178 184 196 206 194 191 197 172 303 277 289 301 317 322 318 319 321 335 318 312 311 319 330 15 49 83
167 165 170 184 180 297 289 325 329 344 356 347 206 170 158 161 168 184 195 194 192 191 195 195 211 204 182 264 298 314 323 318 318 341 355 336 316 314 326 35 70 104 90 70
205 196 206 191 189 150 127 92 46 75 93 102 123 136 151 155 154 154 160 167 171 165 147 145 117 75 358 315 311 317 315 306 335 7 355 341 355 28 46 95 120 102 96 75
131 135 140 132 117 110 106 95 93 82 80 82 86 87 88 88 87 86 74 61 264 233 216 323 322 315 325 302 301 321 312 306 52 23 9 28 33 63 96 119 91 99 96 74
132 123 124 116 111 102 91 87 84 80 76 69 68 64 53 37 352 336 328 332 338 329 338 322 324 319 284 287 302 315 250 177 111 268 37 41 52 77 104 75 64 80 59 15
143 137 127 120 112 106 94 80 64 47 36 25 7 353 343 338 344 352 354 351 341 339 336 309 305 307 309 283 301 302 139 140 165 35 359 25 52 63 54 35 5 346 320 328
128 123 118 109 97 85 73 55 44 40 36 34 28 37 32 24 24 18 16 16 25 24 14 356 350 319 11 45 60 142 189 198 221 231 299 325 329 315 305 313 310 314 314 295
126 122 117 103 82 59 57 53 41 38 40 19 13 7 13 30 37 38 34 27 26 12 10 15 0 50 67 41 51 71 359 289 294 274 296 313 317 323 314 314 302 313 288 266
127 115 93 67 46 27 19 29 34 29 18 10 22 49 48 68 76 79 83 55 53 58 54 51 55 67 53 53 42 10 338 267 329 286 291 290 282 258 263 203 160 109 165 194
146 136 101 60 47 57 54 55 28 21 29 68 78 81 87 87 84 82 83 81 73 68 94 79 73 72 57 40 54 50 25 31 281 302 318 263 249 267 8 209 282 233 223 215
131 112 96 84 75 87 94 66 47 63 96 102 102 94 90 86 85 86 87 84 87 89 90 79 67 84 78 51 23 19 15 354 340 25 121 166 164 214 244 223 217 187 189 260
126 130 124 105 86 106 112 84 77 95 108 103 100 94 93 98 95 89 94 98 97 90 89 79 68 46 12 356 358 23 50 44 33 38 73 77 63 35 255 235 247 265 284 286
136 142 140 143 116 95 123 117 114 105 101 98 103 108 114 118 113 104 102 112 104 100 77 64 44 40 42 45 55 61 63 61 62 64 67 56 25 355 338 319 306 299 297 298
158 164 164 149 148 133 145 117 146 130 112 117 122 134 125 116 109 103 96 97 95 97 71 60 44 41 45 60 69 69 67 66 64 64 61 55 44 31 20 5 352 351 358 3
152 187 199 170 157 165 184 229 175 151 124 135 143 146 138 121 117 128 124 92 75 67 70 53 41 44 57 69 69 69 69 67 65 61 55 51 46 45 47 47 49 49 43 36